[[{"header":{"parameterUnit":"m.s-1","parameterCategory":1,"la1":30.2991,"la2":30.254,"lo1":-89.0895,"lo2":-89.0444,"dx":0.0017,"dy":0.0017,"nx":28,"ny":28,"refTime":"2022-11-07T03:00:00:Z","depth":0,"parameterNumber":2,"parameterNumberName":"U-component_of_WINDS"},"data":[0,0,0,0,0,0,0,0,0,0,0,0,0,0,0,0,0,0,0,0,0,0,0,0,0,0,0,0,0,0,0,0,0,0,0,0,0,0,0,0,0,0,0,0,0,0,0,0,0,0,0,0,0,0,0,0,0,0,-0.7145,-0.7145,0,-0.7181,-0.7182,-0.7182,-0.7152,-0.7151,-0.715,-0.7149,-0.719,-0.7192,-0.7194,0,0,0,0,0,0,0,0,0,0,0,0,0,-0.7054,-0.7056,-0.7145,-0.7146,-0.7146,-0.7181,-0.7182,-0.7182,-0.7153,-0.7151,-0.7149,-0.7148,-0.7189,-0.7192,-0.7194,0,0,0,0,0,0,0,0,0,0,0,0,0,-0.7092,-0.7056,-0.7145,-0.7135,-0.7135,-0.7181,-0.7182,-0.7182,-0.7153,-0.7151,-0.7149,-0.7147,-0.7188,-0.7191,-0.7195,-0.7254,0,0,-0.7205,-0.7207,0,0,0,0,0,0,0,0,-0.709,-0.7096,-0.7136,-0.7136,-0.7136,-0.716,-0.7165,-0.7206,-0.7153,-0.7146,-0.7149,-0.7146,-0.7182,-0.7185,-0.7197,-0.7256,-0.7257,-0.7205,-0.7207,-0.7209,-0.721,0,0,0,0,0,0,0,-0.7088,-0.7094,-0.7159,-0.7137,-0.7137,-0.713,-0.7134,-0.7172,-0.7174,-0.7147,-0.7145,-0.7149,-0.7181,-0.7193,-0.7197,-0.7258,-0.7205,-0.7208,-0.721,-0.7212,-0.7368,-0.737,0,0,0,0,0,0,-0.7085,-0.7092,-0.7158,-0.7161,-0.7108,-0.7134,-0.7137,-0.7154,-0.7174,-0.7175,-0.7151,-0.7147,-0.7188,-0.7193,-0.7199,-0.7269,-0.7209,-0.7212,-0.7214,-0.7366,-0.7368,-0.7371,0,0,0,0,0,0,-0.7084,-0.7092,-0.7157,-0.7126,-0.7134,-0.7137,-0.7157,-0.7156,-0.7168,-0.7177,-0.7177,-0.7162,-0.7187,-0.7194,-0.724,-0.727,-0.7214,-0.7217,-0.7363,-0.7367,-0.7369,-0.7411,0,0,0,0,0,0,-0.7081,-0.7091,-0.7113,-0.7126,-0.7135,-0.7197,-0.7158,-0.7158,-0.7174,-0.717,-0.7188,-0.7189,-0.7186,-0.7235,-0.7243,-0.7274,-0.7219,-0.7361,-0.7365,-0.7368,-0.7407,-0.7415,-0.7422,0,0,0,0,0,-0.7078,-0.7124,-0.7114,-0.7122,-0.7162,-0.7198,-0.7204,-0.7198,-0.7176,-0.7199,-0.7204,-0.7189,-0.7265,-0.724,-0.7249,-0.7281,-0.7359,-0.7364,-0.7368,-0.7404,-0.7414,-0.7422,0,0,0,0,0,0,-0.7115,-0.7125,-0.7115,-0.7166,-0.7181,-0.7193,-0.7221,-0.7209,-0.7232,-0.7228,-0.7221,-0.7226,-0.7274,-0.7282,-0.7254,-0.734,-0.7309,-0.7316,-0.7333,-0.7342,-0.735,-0.7347,-0.7222,0,0,0,0,0,-0.7129,-0.7156,-0.7164,-0.7209,-0.7217,-0.7218,-0.7234,-0.7228,-0.7244,-0.7251,-0.726,-0.7277,-0.7305,-0.7324,-0.735,-0.7408,-0.7412,-0.7434,-0.7442,-0.7448,-0.7455,-0.7486,-0.7497,-0.7386,-0.7386,-0.7386,0,0,-0.7158,-0.7167,-0.7185,-0.7217,-0.7228,-0.7258,-0.7224,-0.7257,-0.7279,-0.7256,-0.73,-0.7307,-0.7327,-0.7379,-0.7402,-0.7387,-0.7486,-0.7454,-0.7459,-0.7462,-0.7492,-0.7503,-0.7512,-0.7389,-0.7389,-0.7388,0,0,-0.7227,-0.7236,-0.7275,-0.7286,-0.7303,-0.7304,-0.7313,-0.7327,-0.733,-0.7374,-0.7358,-0.7385,-0.7433,-0.7448,-0.7461,-0.7535,-0.7523,-0.7544,-0.7585,-0.7616,-0.7624,-0.7632,-0.7659,-0.7669,-0.755,-0.755,-0.7551,0,-0.7262,-0.7305,-0.7296,-0.733,-0.7345,-0.7324,-0.7364,-0.7376,-0.7402,-0.7413,-0.7395,-0.7455,-0.7467,-0.7522,-0.754,-0.7552,-0.7563,-0.7543,-0.7623,-0.7631,-0.7638,-0.7664,-0.7674,-0.7553,-0.7553,-0.7553,-0.7552,0,-0.7347,-0.7377,-0.7407,-0.743,-0.7448,-0.7485,-0.7483,-0.7502,-0.7495,-0.7497,-0.7543,-0.7556,-0.7584,-0.7597,-0.7591,-0.7652,-0.7642,-0.7624,-0.7593,-0.7651,-0.7676,-0.7686,-0.7557,-0.7556,-0.7555,-0.7554,0,0,-0.7441,-0.7459,-0.747,-0.7481,-0.7498,-0.7522,-0.7558,-0.7584,-0.7602,-0.762,-0.7651,-0.7692,-0.7675,-0.7691,-0.7686,-0.7713,-0.7772,-0.7692,-0.7692,-0.7707,-0.7841,-0.7855,-0.7867,-0.7763,-0.7765,-0.7766,-0.784,0,-0.7512,-0.7573,-0.7566,-0.7625,-0.7653,-0.7634,-0.7666,-0.768,-0.7684,-0.7709,-0.7713,-0.7743,-0.7718,-0.7727,-0.7753,-0.7759,-0.7799,-0.7754,-0.7793,-0.7795,-0.7789,-0.7879,-0.7894,-0.7962,-0.7849,-0.7851,-0.7852,0,-0.7602,-0.7622,-0.7683,-0.7696,-0.7708,-0.7736,-0.776,-0.7784,-0.7801,-0.7801,-0.7818,-0.7809,-0.7847,-0.7814,-0.7866,-0.7836,-0.7852,-0.7857,-0.786,-0.7864,-0.7827,-0.7886,-0.7984,-0.7995,-0.7867,-0.7865,-0.7864,0,-0.7665,-0.7707,-0.7749,-0.7759,-0.7775,-0.7795,-0.7803,-0.7818,-0.7835,-0.7856,-0.7867,-0.7893,-0.7908,-0.7929,-0.7927,-0.7903,-0.7981,-0.7948,-0.7983,-0.7983,-0.8001,-0.8,-0.8103,-0.801,-0.801,-0.801,-0.8009,0,-0.7744,-0.7783,-0.7778,-0.7804,-0.7847,-0.7839,-0.7883,-0.7888,-0.7901,-0.7929,-0.7915,-0.7941,-0.7937,-0.7964,-0.7963,-0.8007,-0.8014,-0.8016,-0.8016,-0.8018,-0.8018,-0.8029,-0.8024,-0.8012,-0.8012,-0.8011,-0.8011,0,-0.7822,-0.782,-0.7865,-0.7876,-0.788,-0.7911,-0.7921,-0.7947,-0.7949,-0.7984,-0.7992,-0.7996,-0.8027,-0.8027,-0.8063,-0.8062,-0.8116,-0.811,-0.811,-0.8109,-0.8145,-0.8142,-0.826,-0.8275,-0.8171,-0.8172,-0.8173,0,-0.7873,-0.7902,-0.7916,-0.7933,-0.7942,-0.7969,-0.7986,-0.798,-0.7998,-0.8019,-0.8042,-0.8072,-0.8095,-0.8146,-0.8153,-0.818,-0.8175,-0.8214,-0.8179,-0.8181,-0.8176,-0.8175,-0.8178,-0.8221,-0.8223,-0.8224,-0.8224,0,-0.7964,-0.7962,-0.7986,-0.8009,-0.8029,-0.8048,-0.8065,-0.808,-0.8076,-0.8097,-0.8128,-0.8146,-0.8182,-0.8212,-0.8239,-0.8248,-0.8236,-0.8235,-0.8245,-0.8248,-0.8247,-0.8249,-0.813,-0.8233,-0.8232,-0.8231,-0.8231,-0.823,-0.8031,-0.8056,-0.807,-0.8097,-0.8108,-0.8125,-0.8149,-0.8153,-0.8179,-0.8207,-0.8202,-0.8237,-0.8253,-0.8288,-0.8299,-0.8328,-0.8314,-0.8328,-0.8332,-0.8336,-0.834,-0.8242,-0.8332,-0.8332,-0.8332,-0.8332,-0.8332,0,-0.8122,-0.813,-0.8154,-0.8178,-0.82,-0.8185,-0.8203,-0.8222,-0.8253,-0.8268,-0.8291,-0.8327,-0.8356,-0.8365,-0.8393,-0.8414,-0.8409,-0.8422,-0.8421,-0.8423,-0.835,-0.8339,-0.8425,-0.8425,-0.8425,-0.8425,-0.8425,-0.8425,-0.8172,-0.8213,-0.8213,-0.8261,-0.8268,-0.8301,-0.8313,-0.8328,-0.8341,-0.8381,-0.8404,-0.8409,-0.8423,-0.8452,-0.8478,-0.848,-0.8491,-0.8506,-0.8506,-0.8438,-0.8428,-0.8419,-0.8409,-0.8509,-0.8509,-0.8577,-0.8578,-0.8578]},{"header":{"parameterUnit":"m.s-1","parameterCategory":1,"la1":30.2991,"la2":30.254,"lo1":-89.0895,"lo2":-89.0444,"dx":0.0017,"dy":0.0017,"nx":28,"ny":28,"refTime":"2022-11-07T03:00:00:Z","depth":0,"parameterNumber":3,"parameterNumberName":"V-component_of_WINDS"},"data":[0,0,0,0,0,0,0,0,0,0,0,0,0,0,0,0,0,0,0,0,0,0,0,0,0,0,0,0,0,0,0,0,0,0,0,0,0,0,0,0,0,0,0,0,0,0,0,0,0,0,0,0,0,0,0,0,0,0,-1.2593,-1.2594,0,-1.2642,-1.2642,-1.2643,-1.2641,-1.264,-1.2639,-1.2639,-1.2689,-1.2691,-1.2693,0,0,0,0,0,0,0,0,0,0,0,0,0,-1.2498,-1.2499,-1.2593,-1.2594,-1.2594,-1.2642,-1.2642,-1.2643,-1.2641,-1.264,-1.2639,-1.2638,-1.2688,-1.2691,-1.2693,0,0,0,0,0,0,0,0,0,0,0,0,0,-1.2542,-1.25,-1.2593,-1.2599,-1.26,-1.2642,-1.2643,-1.2643,-1.2641,-1.264,-1.2639,-1.2638,-1.2687,-1.269,-1.2693,-1.2733,0,0,-1.2702,-1.2704,0,0,0,0,0,0,0,0,-1.254,-1.2546,-1.2597,-1.2598,-1.26,-1.2634,-1.2627,-1.2673,-1.2641,-1.2625,-1.2638,-1.2637,-1.2671,-1.2676,-1.2687,-1.2735,-1.2737,-1.2703,-1.2705,-1.2706,-1.2707,0,0,0,0,0,0,0,-1.2537,-1.2544,-1.2612,-1.2598,-1.2599,-1.2599,-1.2604,-1.2636,-1.2654,-1.2627,-1.2626,-1.2632,-1.2672,-1.2684,-1.2688,-1.2738,-1.2703,-1.2705,-1.2707,-1.2708,-1.2821,-1.2822,0,0,0,0,0,0,-1.2532,-1.2541,-1.2611,-1.2614,-1.2566,-1.2602,-1.2607,-1.2624,-1.2653,-1.2657,-1.2633,-1.2632,-1.268,-1.2685,-1.269,-1.2739,-1.2706,-1.2709,-1.271,-1.282,-1.2821,-1.2822,0,0,0,0,0,0,-1.253,-1.2538,-1.2609,-1.2577,-1.2586,-1.2604,-1.2623,-1.2626,-1.2638,-1.2658,-1.2661,-1.2643,-1.2679,-1.2686,-1.2722,-1.274,-1.271,-1.2713,-1.2818,-1.282,-1.2822,-1.2835,0,0,0,0,0,0,-1.2527,-1.2538,-1.2553,-1.2578,-1.2588,-1.264,-1.2624,-1.2627,-1.2643,-1.2642,-1.2668,-1.2671,-1.2679,-1.2718,-1.2725,-1.2744,-1.2715,-1.2817,-1.2819,-1.2821,-1.2834,-1.2838,-1.2841,0,0,0,0,0,-1.2524,-1.2555,-1.2554,-1.2562,-1.2607,-1.2641,-1.2647,-1.2655,-1.2645,-1.266,-1.2673,-1.267,-1.2737,-1.2722,-1.273,-1.275,-1.2816,-1.2818,-1.2821,-1.2832,-1.2837,-1.2841,0,0,0,0,0,0,-1.2532,-1.2558,-1.2557,-1.2597,-1.2617,-1.2641,-1.266,-1.266,-1.2683,-1.2681,-1.269,-1.2696,-1.2733,-1.2745,-1.2727,-1.2789,-1.2775,-1.2779,-1.278,-1.2785,-1.2789,-1.2785,-1.2717,0,0,0,0,0,-1.2538,-1.2563,-1.2585,-1.2618,-1.2628,-1.2642,-1.2657,-1.2662,-1.2683,-1.2691,-1.2707,-1.2727,-1.2753,-1.277,-1.2794,-1.2835,-1.2841,-1.2853,-1.2856,-1.2859,-1.2863,-1.2886,-1.2892,-1.2831,-1.2831,-1.2831,0,0,-1.2551,-1.2569,-1.2584,-1.262,-1.2636,-1.2662,-1.2649,-1.2677,-1.2697,-1.2695,-1.2731,-1.2743,-1.2766,-1.2805,-1.2823,-1.2816,-1.2881,-1.2863,-1.2865,-1.2867,-1.2889,-1.2895,-1.29,-1.2833,-1.2833,-1.2832,0,0,-1.2589,-1.2604,-1.2634,-1.265,-1.2674,-1.2684,-1.2691,-1.2715,-1.2723,-1.2758,-1.2758,-1.2781,-1.2825,-1.2841,-1.2856,-1.2899,-1.2898,-1.2907,-1.2927,-1.2949,-1.2954,-1.2958,-1.2974,-1.2979,-1.2911,-1.2911,-1.2911,0,-1.2602,-1.2641,-1.2649,-1.2677,-1.2693,-1.2693,-1.2723,-1.2738,-1.2769,-1.278,-1.2772,-1.2827,-1.2843,-1.2885,-1.2896,-1.2907,-1.2916,-1.2905,-1.2952,-1.2957,-1.2961,-1.2976,-1.2982,-1.2912,-1.2912,-1.2912,-1.2912,0,-1.2657,-1.2684,-1.2705,-1.2735,-1.2753,-1.2782,-1.2794,-1.2811,-1.2814,-1.2824,-1.286,-1.2879,-1.2908,-1.2918,-1.2921,-1.2961,-1.2956,-1.295,-1.2936,-1.2967,-1.2982,-1.2988,-1.2913,-1.2913,-1.2913,-1.2912,0,0,-1.2701,-1.2735,-1.2742,-1.2756,-1.2783,-1.2804,-1.2833,-1.286,-1.2875,-1.2897,-1.2921,-1.2958,-1.2952,-1.2969,-1.2973,-1.2993,-1.3026,-1.2984,-1.2985,-1.2992,-1.3072,-1.3077,-1.3084,-1.3025,-1.3027,-1.3027,-1.3071,0,-1.2742,-1.2793,-1.2801,-1.2846,-1.2871,-1.2871,-1.2896,-1.2915,-1.2926,-1.2949,-1.296,-1.2986,-1.2977,-1.2986,-1.3005,-1.3018,-1.3043,-1.3015,-1.3049,-1.305,-1.3043,-1.3091,-1.3097,-1.3137,-1.3076,-1.3077,-1.3078,0,-1.2796,-1.2819,-1.2867,-1.289,-1.2901,-1.2923,-1.295,-1.2971,-1.2993,-1.2999,-1.3017,-1.302,-1.305,-1.3034,-1.3075,-1.3056,-1.307,-1.3078,-1.308,-1.3084,-1.3066,-1.3097,-1.3149,-1.3156,-1.3087,-1.3086,-1.3085,0,-1.2824,-1.2867,-1.2901,-1.2913,-1.294,-1.2956,-1.2969,-1.2989,-1.3005,-1.3028,-1.3039,-1.3065,-1.3079,-1.3099,-1.3108,-1.3096,-1.3149,-1.3134,-1.3155,-1.3155,-1.3167,-1.3166,-1.3223,-1.3175,-1.3175,-1.3175,-1.3175,0,-1.2869,-1.2898,-1.2914,-1.2935,-1.2968,-1.2976,-1.3008,-1.302,-1.3039,-1.3062,-1.3063,-1.3085,-1.3096,-1.312,-1.3127,-1.316,-1.3167,-1.3173,-1.3174,-1.3173,-1.3172,-1.3183,-1.318,-1.3177,-1.3176,-1.3176,-1.3176,0,-1.2906,-1.2918,-1.2955,-1.2978,-1.2985,-1.3008,-1.3028,-1.3048,-1.3058,-1.3088,-1.3095,-1.3111,-1.3139,-1.315,-1.3184,-1.3189,-1.3228,-1.3227,-1.322,-1.3221,-1.3242,-1.324,-1.3308,-1.3317,-1.3263,-1.3263,-1.3264,0,-1.2934,-1.2957,-1.2983,-1.2998,-1.3011,-1.3037,-1.3053,-1.3062,-1.3079,-1.3106,-1.3123,-1.3151,-1.3173,-1.3218,-1.3232,-1.3258,-1.3259,-1.328,-1.3262,-1.326,-1.3259,-1.3258,-1.3261,-1.3284,-1.3284,-1.3285,-1.3285,0,-1.2983,-1.2988,-1.3012,-1.3037,-1.3057,-1.3078,-1.3098,-1.3111,-1.3123,-1.3142,-1.3171,-1.3189,-1.3223,-1.3251,-1.3278,-1.329,-1.329,-1.3291,-1.3297,-1.3296,-1.3292,-1.3295,-1.323,-1.3289,-1.3289,-1.3289,-1.3288,-1.3288,-1.3017,-1.3037,-1.3058,-1.3085,-1.3101,-1.312,-1.314,-1.3153,-1.3177,-1.3206,-1.321,-1.324,-1.3261,-1.3297,-1.3311,-1.3335,-1.3329,-1.3338,-1.3341,-1.3343,-1.3345,-1.3287,-1.334,-1.334,-1.334,-1.3339,-1.3339,0,-1.3066,-1.308,-1.3104,-1.3133,-1.3154,-1.3151,-1.3173,-1.3191,-1.3218,-1.3238,-1.326,-1.3293,-1.3319,-1.3336,-1.3363,-1.3379,-1.3379,-1.3386,-1.3385,-1.3388,-1.3348,-1.334,-1.3385,-1.3385,-1.3385,-1.3385,-1.3385,-1.3385,-1.3094,-1.3129,-1.3136,-1.3178,-1.3191,-1.3221,-1.3234,-1.3252,-1.3267,-1.3304,-1.3326,-1.3337,-1.3355,-1.3383,-1.3408,-1.3412,-1.3422,-1.3429,-1.3432,-1.3395,-1.3391,-1.3386,-1.3379,-1.3431,-1.3431,-1.347,-1.3471,-1.3471]}]]